Content
SEND FEEDBACK

Daily
Averages
Monthly
Summary
United States of America

WEST MEMPHIS, ARKANSAS


Home > North America > United States > Arkansas
Elevation: 215 feet     Latitude: 35 07N     Longitude: 090 11W

WEATHER
 
SELECT A DAY
Number of Records: 125,157;   Date Range: 1/15/03 - 12/23/14
 
SHARE

PRINT THIS DATA

[ ← Previous Day ]
WEATHER ALMANAC - FEBRUARY 13, 2013
[ Next Day → ]
[ °C ]   °F
Weather ElementAverageHighLow
Temperature40.7 °F45 °F (4:53 pm)37 °F (6:53 pm)
Dewpoint37.6 °F41 °F (12:53 am)35.1 °F (6:53 pm)
Humidity89.1 %100 % (12:53 am)74 % (4:53 pm)
Barometer29.95 in30.03 in (10:53 pm)29.81 in (12:48 am)
Wind Speed7.4 mph13.8 mph (3:53 am)
Wind Gust20.7 mph (5:05 am)
Weather ElementAverage
Visibility8.6 mi
Wind DirectionWSW (237 °)

Weather ElementTotal
Precipitation0.04 in
Heating Degree Days24 (Base 65)
Averaged from 33 records on February 13, 2013
WEATHER CONDITIONS BREAKOUT
WIND DIRECTION BREAKOUT
WEATHER BY HOUR - FEBRUARY 13, 2013
[ °C ]   °F
Local TimeTemperatureDewpointHumidityBarometerVisibilityWind DirectionWind SpeedGust SpeedPrecipitationEventsConditions
12:48 AM41.0 °F39.2 °F93 %29.81 in3.0 miNNE (20°)9.2 mph0.01 inRainLight Rain
12:53 AM41.0 °F41.0 °F100 %29.81 in3.0 miNNE (20°)8.1 mph0.01 inRainLight Rain
1:04 AM41.0 °F39.2 °F93 %29.81 in4.0 miNNE (20°)8.1 mphOvercast
1:53 AM41.0 °F39.9 °F96 %29.81 in3.0 miNorth (10°)11.5 mphOvercast
2:53 AM41.0 °F39.9 °F96 %29.81 in4.0 miNorth (10°)12.7 mph0.01 inOvercast
3:53 AM39.9 °F39.0 °F97 %29.82 in4.0 miNorth (350°)13.8 mph0.01 inOvercast
4:53 AM39.0 °F37.9 °F96 %29.85 in6.0 miNorth (360°)11.5 mph18.4 mphOvercast
5:05 AM39.2 °F37.4 °F93 %29.86 in7.0 miNorth (360°)11.5 mph20.7 mphOvercast
6:53 AM39.0 °F37.0 °F93 %29.90 in10.0 miNorth (350°)5.8 mphOvercast
7:53 AM39.0 °F37.0 °F93 %29.94 in10.0 miNNW (340°)5.8 mphOvercast
8:35 AM39.2 °F37.4 °F93 %29.96 in10.0 miNorth (350°)5.8 mphOvercast
8:53 AM39.0 °F36.0 °F89 %29.96 in10.0 miNorth (10°)4.6 mphOvercast
9:15 AM39.2 °F37.4 °F93 %29.97 in10.0 miNNW (340°)4.6 mphOvercast
9:53 AM39.9 °F37.0 °F89 %29.99 in10.0 miNNW (340°)8.1 mphOvercast
10:53 AM41.0 °F37.0 °F86 %30.02 in10.0 miNW (320°)8.1 mphOvercast
11:00 AM41.0 °F37.4 °F87 %30.02 in10.0 miNNW (330°)6.9 mph
11:26 AM41.0 °F37.4 °F87 %30.02 in10.0 miNW (320°)8.1 mphOvercast
11:33 AM41.0 °F37.4 °F87 %30.02 in10.0 miNW (320°)6.9 mphOvercast
11:53 AM41.0 °F37.9 °F89 %30.02 in10.0 miNW (310°)4.6 mphOvercast
12:53 PM41.0 °F37.9 °F89 %30.01 in10.0 miNW (310°)8.1 mphOvercast
1:53 PM43.0 °F37.9 °F82 %29.99 in10.0 miWNW (300°)5.8 mphOvercast
2:26 PM42.8 °F37.4 °F81 %29.97 in10.0 miWNW (300°)3.5 mphMostly Cloudy
2:53 PM44.1 °F37.9 °F79 %29.97 in10.0 miNW (320°)5.8 mphMostly Cloudy
3:53 PM44.1 °F37.9 °F79 %29.98 in10.0 miWNW (300°)4.6 mphOvercast
4:53 PM45.0 °F37.0 °F74 %29.98 in10.0 miSW (220°)4.6 mphOvercast
5:30 PM42.8 °F37.4 °F81 %29.98 in10.0 miSW (220°)4.6 mphScattered Clouds
5:53 PM42.1 °F37.0 °F82 %29.99 in10.0 miSSW (200°)4.6 mphClear
6:53 PM37.0 °F35.1 °F93 %30.00 in10.0 miSouth (190°)6.9 mphClear
7:53 PM37.9 °F36.0 °F93 %30.01 in10.0 miSSW (200°)5.8 mphClear
8:53 PM39.9 °F37.0 °F89 %30.01 in10.0 miSouth (190°)6.9 mphClear
9:53 PM39.9 °F37.0 °F89 %30.02 in10.0 miSouth (190°)9.2 mphClear
10:53 PM39.9 °F37.0 °F89 %30.03 in10.0 miSSW (200°)9.2 mphClear
11:53 PM39.0 °F36.0 °F89 %30.03 in10.0 miSSW (200°)8.1 mphClear
Hourly data recorded from KAWM, located miles away from West Memphis, Arkansas







STORIES FROM OUR PARTNERS